SCP
0 0 0 0 0 0 0 0 0 0 0 0 0 0 0 0 0 0 0 0 0 0 0 0 0 0 0 0 0 0 0 0 0 0 0 0 0 0 0 0 0 0 0
0 0 0 0 0 0 0 0 0 0 0 0 0 0 0 0 0 0 0 0 0 0 0 0 0 0 0 0 0 0 0 0 0 0 0 0 0 0 0 0 0 0 0
0 0 0 0 0 0 0 0 0 0 0 0 0 0 0 0 0 0 0 0 0 0 0 0 0 0 0 0 0 0 0 0 0 0 0 0 0 0 0 0 0 0 0
0 0 0 0 0 0 0 0 0 0 0 0 0 0 0 0 0 0 0 0 0 0 0 0 0 0 0 0 0 0 0 0 0 0 0 0 0 0 0 0 0 0 0
0 0 0 0 0 0 0 0 0 0 0 0 0 0 0 0 0 0 0 0 0 0 0 0 0 0 0 0 0 0 0 0 0 0 0 0 0 0 0 0 0 0 0
0 0 0 0 0 0 0 0 0 0 0 0 0 0 0 0 0 0 0 0 0 0 0 0 0 0 0 0 0 0 0 0 0 0 0 0 0 0 0 0 0 0 0
0 0 0 0 0 0 0 0 0 0 0 0 0 0 0 0 0 0 0 0 0 0 0 0 0 0 0 0 0 0 0 0 0 0 0 0 0 0 0 0 0 0 0
0 0 0 0 0 0 0 0 0 0 0 0 0 0 0 0 0 0 0 0 0 0 0 0 0 0 0 0 0 0 0 0 0 0 0 0 0 0 0 0 0 0 0
0 0 0 0 0 0 0 0 0 0 0 0 0 0 0 0 0 0 0 0 0 0 0 0 0 0 0 0 0 0 0 0 0 0 0 0 0 0 0 0 0 0 0
0 0 0 0 0 0 0 0 0 0 0 0 0 0 0 0 0 0 0 0 0 0 0 0 0 0 0 0 0 0 0 0 0 0 0 0 0 0 0 0 0 0 0
0 0 0 0 0 0 0 0 0 0 0 0 0 0 0 0 0 0 0 0 0 0 0 0 0 0 0 0 0 0 0 0 0 0 0 0 0 0 0 0 0 0 0
0 0 0 0 0 0 0 0 0 0 0 0 0 0 0 0 0 0 0 0 0 0 0 0 0 0 0 0 0 0 0 0 0 0 0 0 0 0 0 0 0 0 0
0 0 0 0 0 0 0 0 0 0 0 0 0 0 0 0 0 0 0 0 0 0 0 0 0 0 0 0 0 0 0 0 0 0 0 0 0 0 0 0 0 0 0
0 0 0 0 0 0 0 0 0 0 0 0 0 0 0 0 0 0 0 0 0 0 0 0 0 0 0 0 0 0 0 0 0 0 0 0 0 0 0 0 0 0 0
0 0 0 0 0 0 0 0 0 0 0 0 0 0 0 0 0 0 0 0 0 0 0 0 0 0 0 0 0 0 0 0 0 0 0 0 0 0 0 0 0 0 0
0 0 0 0 0 0 0 0 0 0 0 0 0 0 0 0 0 0 0 0 0 0 0 0 0 0 0 0 0 0 0 0 0 0 0 0 0 0 0 0 0 0 0
0 0 0 0 0 0 0 0 0 0 0 0 0 0 0 0 0 0 0 0 0 0 0 0 0 0 0 0 0 0 0 0 0 0 0 0 0 0 0 0 0 0 0
0 0 0 0 0 0 0 0 0 0 0 0 0 0 0 0 0 0 0 0 0 0 0 0 0 0 0 0 0 0 0 0 0 0 0 0 0 0 0 0 0 0 0
0 0 0 0 0 0 0 0 0 0 0 0 0 0 0 0 0 0 0 0 0 0 0 0 0 0 0 0 0 0 0 0 0 0 0 0 0 0 0 0 0 0 0
0 0 0 0 0 0 0 0 0 0 0 0 0 0 0 0 0 0 0 0 0 0 0 0 0 0 0 0 0 0 0 0 0 0 0 0 0 0 0 0 0 0 0
-0 -0 -0 -0 -0 0 0 0 0 0 0 0 0 0 0 0 0 0 0 0 0 0 0 0 0 0 0 0 0 0 0 0 0 0 0 0 0 0 0 0 0 0 0
-0 0 0 0 0 0 0 0 0 0 0 0 0 0 0 0 0 0 0 0 0 0 0 0 0 0 0 0 0 0 0 0 0 0 0 0 0 0 0 0 0 0 0
0 0 0 0 0 0 0 0 0 0 0 0 0 0 0 0 0 0 0 0 0 0 0 0 0 0 0 0 0 0 0 0 0 0 0 0 0 0 0 0 0 0 0
0 0 0 0 0 0 0 0 0 0 0 0 0 0 0 0 0 0 0 0 0 0 0 0 0 0 0 0 0 0 0 0 0 0 0 0 0 0 0 0 0 0 0
0 0 0 0 0 0 0 0 0 0 0 0 0 0 0 0 0 0 0 0 0 0 0 0 0 0 0 0 0 0 0 0 0 0 0 0 0 0 0 0 0 0 0
0 0 0 0 0 0 0 0 0 0 0 0 0 0 0 0 0 0 0 0 0 0 0 0 0 0 0 0 0 0 0 0 0 0 0 0 0 0 0 0 0 0 0
Wind_Speed_500mb
31 26 23 19 11 24 30 36 36 35 21 31 36 35 31 37 40 33 25 25 29 31 25 22 18 10 12 10 12 13 16 17 18 19 23 20 16 13 14 17 18 21 23
46 46 48 44 42 40 39 30 27 22 18 18 22 18 23 13 20 20 23 23 22 23 17 12 8 5 8 5 5 8 10 13 11 11 12 10 10 11 13 17 21 23 26
41 43 45 43 42 40 36 39 34 28 29 28 26 26 24 22 18 16 13 13 16 18 13 6 6 10 8 7 7 7 6 5 5 6 6 8 8 10 14 19 24 27 29
35 35 33 33 30 29 26 23 18 17 17 16 18 15 14 12 8 5 9 11 8 6 8 13 15 13 7 8 7 5 5 5 5 4 3 1 6 12 19 23 26 29 30
23 22 22 23 21 22 21 21 19 20 20 17 15 15 12 13 15 15 15 18 12 13 19 18 13 11 13 10 8 5 5 4 4 3 3 7 12 18 23 27 31 32 32
33 36 35 31 29 26 25 22 18 17 15 13 13 16 16 15 12 13 13 15 18 15 11 11 13 13 13 12 10 7 4 4 5 6 8 11 16 21 25 29 33 34 32
39 40 37 36 31 29 28 24 23 23 23 22 21 20 22 23 24 22 22 18 17 18 16 16 14 12 10 9 7 4 2 4 8 12 14 17 21 26 30 32 34 36 36
38 37 38 37 36 32 27 26 25 26 24 24 23 22 19 20 20 17 16 15 14 14 13 12 10 6 5 3 1 2 4 9 13 17 19 23 25 29 32 35 37 39 38
36 35 35 35 31 28 26 26 25 21 22 21 21 19 17 16 17 16 15 13 12 12 11 10 7 5 3 1 4 8 11 15 18 22 24 26 29 35 36 38 39 41 42
31 31 31 31 28 26 25 22 23 22 19 20 19 17 15 14 15 13 12 12 10 9 8 6 5 3 5 9 13 14 16 19 23 28 31 34 35 38 41 42 41 42 41
27 26 26 24 24 22 21 19 17 16 14 14 12 11 10 10 10 9 8 8 7 7 5 6 6 7 10 14 17 20 22 27 30 31 34 37 39 40 42 43 43 42 43
23 23 20 19 18 17 15 13 11 10 9 8 6 5 5 4 5 7 8 10 10 11 11 13 12 14 16 19 23 27 31 34 34 36 39 41 43 43 45 45 46 45 45
19 18 15 14 13 12 9 8 7 7 5 1 2 4 6 6 9 12 15 16 16 18 18 19 20 21 23 26 31 35 39 40 41 42 44 45 47 47 46 46 47 50 48
9 9 10 10 10 11 11 11 10 8 7 6 7 9 11 12 16 19 20 21 24 25 26 25 25 27 30 33 35 38 40 43 46 48 49 49 50 51 50 54 53 53 53
10 11 12 11 9 9 10 9 9 9 10 10 10 10 11 12 17 21 24 27 31 34 34 34 33 34 37 38 38 39 42 45 48 52 54 56 56 56 55 56 57 55 54
10 12 14 16 19 22 23 22 19 18 17 13 13 14 16 20 24 28 34 38 42 45 43 39 36 38 38 39 41 43 43 45 51 56 57 58 60 59 58 54 55 56 56
23 24 24 24 26 27 28 28 29 31 28 28 27 24 26 28 31 33 37 42 43 41 44 43 41 41 47 49 47 48 50 51 55 56 58 59 60 60 59 56 52 54 55
32 32 34 35 34 33 33 33 33 31 29 29 32 33 32 34 36 41 45 52 47 42 43 43 46 47 49 52 51 54 56 57 57 57 58 57 55 57 56 53 50 53 54
32 32 33 32 33 34 35 35 35 34 34 34 32 34 35 40 45 47 50 51 48 46 46 48 51 53 54 55 56 58 60 61 59 59 56 55 53 54 54 52 52 51 54
32 31 30 30 30 30 31 31 33 35 38 40 40 41 43 46 48 50 51 47 48 50 51 52 53 55 57 59 61 62 63 61 59 58 56 54 52 52 52 51 49 51 50
32 28 27 27 26 26 26 27 28 30 33 35 37 40 46 48 47 45 42 43 46 48 50 52 53 53 55 56 57 57 57 54 49 49 48 47 47 47 45 46 47 47 49
33 28 27 27 28 28 29 28 29 30 31 32 34 37 39 41 41 42 43 43 43 45 47 48 47 48 48 49 49 49 47 45 43 44 44 43 43 43 44 45 46 49 50
24 22 21 21 22 22 22 23 23 24 25 26 26 27 29 31 34 36 37 38 39 40 42 44 43 40 41 42 43 44 43 41 41 41 42 42 43 44 46 48 48 48 48
19 19 19 19 19 18 18 18 18 19 20 22 23 25 26 28 30 32 33 34 33 35 36 37 38 38 37 35 37 39 42 42 42 41 43 44 44 43 44 45 44 43 44
19 19 18 18 17 18 18 19 19 20 21 21 22 23 25 26 27 28 29 30 31 31 31 33 34 34 35 35 35 34 36 38 39 39 39 40 40 40 41 41 41 41 41
16 16 16 16 17 17 17 17 17 18 18 18 18 19 20 22 23 24 24 24 25 26 26 27 28 29 29 29 30 29 28 27 27 27 30 33 34 35 37 39 39 41 41
Wind_Direction_500mb
124 121 125 122 139 189 219 219 216 207 234 210 240 222 202 176 190 195 200 208 217 211 197 199 186 204 224 222 229 236 232 229 231 234 240 247 246 256 268 277 286 291 299
103 108 106 106 104 108 120 125 120 135 142 156 171 176 160 155 176 192 206 208 188 163 150 172 187 191 204 211 223 232 230 226 223 233 224 224 242 258 274 286 297 303 303
95 95 100 102 104 102 98 106 101 93 102 107 101 98 98 108 99 88 105 141 155 147 139 138 196 204 191 189 214 218 207 193 177 201 205 213 239 275 291 302 303 305 305
94 88 85 84 86 95 103 101 109 113 119 128 138 135 122 136 144 189 216 222 190 150 166 167 155 146 168 165 159 154 139 132 141 133 146 227 294 306 305 305 305 305 303
104 102 92 88 91 96 98 101 102 106 105 109 108 109 120 138 157 170 187 180 174 177 157 148 145 158 151 136 133 135 126 123 103 83 7 331 320 313 310 310 309 308 308
93 93 93 94 95 98 98 93 87 82 85 96 112 111 114 126 133 145 146 142 139 140 151 158 158 149 151 153 150 137 106 51 7 354 334 321 317 316 317 314 312 313 316
88 88 90 90 89 86 89 94 99 101 102 103 104 107 116 116 112 119 123 132 142 148 149 146 137 147 135 122 119 103 51 346 334 335 335 332 329 322 318 314 312 313 311
84 85 87 86 86 84 87 92 94 98 100 99 100 103 106 114 116 121 126 135 139 141 145 141 143 136 114 114 85 23 346 342 332 335 335 328 325 319 319 316 314 311 311
88 89 87 85 84 88 93 95 97 97 101 104 109 114 121 126 128 133 136 139 146 151 153 153 156 175 197 321 336 341 341 337 330 328 328 328 324 321 320 317 314 313 312
82 80 83 89 89 89 87 89 93 95 97 104 109 120 129 143 145 149 153 165 168 177 179 186 204 242 311 327 334 332 325 324 326 327 327 325 322 319 318 316 313 310 312
75 77 79 82 84 84 85 86 87 92 95 99 105 116 135 154 154 170 191 200 211 221 241 254 266 296 305 313 316 316 319 319 320 320 319 319 319 317 315 313 310 307 306
70 67 69 70 74 75 76 82 87 90 90 86 106 150 172 180 213 235 244 251 259 269 273 276 286 290 299 304 305 309 313 313 315 316 317 319 318 318 319 315 309 305 303
51 49 47 49 51 51 42 44 47 41 37 14 272 276 284 297 291 284 282 283 283 282 282 285 291 296 299 301 304 306 309 311 314 317 319 320 319 318 318 313 310 305 305
46 34 20 15 23 26 20 18 12 353 328 316 307 298 302 304 299 297 297 294 288 286 289 291 290 292 294 295 296 299 303 309 313 315 317 316 316 317 317 313 313 309 307
308 298 293 287 294 303 307 307 296 296 303 308 312 313 307 306 305 305 303 296 293 291 290 288 289 292 293 293 297 299 302 307 311 312 313 315 316 314 314 312 312 309 308
323 316 308 304 298 292 286 281 275 275 274 280 278 281 297 305 300 296 295 295 294 290 284 283 283 283 289 292 293 295 297 305 306 309 312 312 311 311 310 309 307 307 307
302 300 299 298 295 294 295 294 288 289 288 284 289 285 295 295 293 298 305 302 298 289 288 293 291 284 287 290 295 298 303 304 306 309 308 308 307 306 306 306 306 304 304
296 292 290 291 292 292 291 291 291 287 279 278 279 275 278 285 294 295 301 301 297 291 290 289 290 290 291 295 298 300 302 305 307 306 304 304 303 302 301 303 304 304 304
303 294 291 291 290 289 290 291 290 290 287 280 272 270 282 291 290 293 294 292 293 292 291 292 295 297 298 299 300 300 300 301 302 301 302 302 301 299 303 305 305 304 304
320 311 301 294 290 287 285 286 287 288 289 291 291 287 283 285 286 289 294 298 300 300 298 296 294 295 296 297 298 299 301 303 306 305 306 305 303 304 304 302 302 302 301
317 313 308 305 298 291 287 286 288 290 291 293 293 291 289 290 293 296 296 294 293 293 293 295 297 299 301 302 303 303 305 308 307 304 302 301 300 300 300 300 301 300 300
312 316 317 316 312 306 302 300 298 297 295 293 292 293 295 297 300 303 305 305 305 304 303 302 302 302 301 301 301 302 302 303 301 299 301 301 300 301 300 298 298 299 300
310 315 321 323 321 318 317 315 312 310 308 308 308 305 304 302 300 300 300 301 302 303 305 306 308 309 307 307 306 306 306 305 303 303 301 300 301 302 301 301 303 304 304
336 333 335 333 331 329 326 323 320 317 316 314 313 313 312 312 312 312 312 313 313 313 312 311 311 312 312 310 308 308 308 309 310 309 306 305 305 303 303 304 306 306 307
336 341 344 345 344 342 341 339 336 334 331 331 330 329 328 328 327 326 324 323 323 323 322 322 321 321 321 321 320 318 316 314 315 313 311 311 310 310 310 309 309 308 308
4 1 359 358 357 355 354 351 349 346 344 341 340 341 341 342 341 341 340 340 339 337 336 335 334 334 335 335 337 339 341 341 339 337 334 331 329 329 327 326 324 321 319
Wind_Speed_850mb
31 26 23 19 11 24 30 36 36 35 21 31 36 35 31 37 40 33 25 25 29 31 25 22 18 10 12 10 12 13 16 17 18 19 23 20 16 13 14 17 18 21 23
46 46 48 44 42 40 39 30 27 22 18 18 22 18 23 13 20 20 23 23 22 23 17 12 8 5 8 5 5 8 10 13 11 11 12 10 10 11 13 17 21 23 26
41 43 45 43 42 40 36 39 34 28 29 28 26 26 24 22 18 16 13 13 16 18 13 6 6 10 8 7 7 7 6 5 5 6 6 8 8 10 14 19 24 27 29
35 35 33 33 30 29 26 23 18 17 17 16 18 15 14 12 8 5 9 11 8 6 8 13 15 13 7 8 7 5 5 5 5 4 3 1 6 12 19 23 26 29 30
23 22 22 23 21 22 21 21 19 20 20 17 15 15 12 13 15 15 15 18 12 13 19 18 13 11 13 10 8 5 5 4 4 3 3 7 12 18 23 27 31 32 32
33 36 35 31 29 26 25 22 18 17 15 13 13 16 16 15 12 13 13 15 18 15 11 11 13 13 13 12 10 7 4 4 5 6 8 11 16 21 25 29 33 34 32
39 40 37 36 31 29 28 24 23 23 23 22 21 20 22 23 24 22 22 18 17 18 16 16 14 12 10 9 7 4 2 4 8 12 14 17 21 26 30 32 34 36 36
38 37 38 37 36 32 27 26 25 26 24 24 23 22 19 20 20 17 16 15 14 14 13 12 10 6 5 3 1 2 4 9 13 17 19 23 25 29 32 35 37 39 38
36 35 35 35 31 28 26 26 25 21 22 21 21 19 17 16 17 16 15 13 12 12 11 10 7 5 3 1 4 8 11 15 18 22 24 26 29 35 36 38 39 41 42
31 31 31 31 28 26 25 22 23 22 19 20 19 17 15 14 15 13 12 12 10 9 8 6 5 3 5 9 13 14 16 19 23 28 31 34 35 38 41 42 41 42 41
27 26 26 24 24 22 21 19 17 16 14 14 12 11 10 10 10 9 8 8 7 7 5 6 6 7 10 14 17 20 22 27 30 31 34 37 39 40 42 43 43 42 43
23 23 20 19 18 17 15 13 11 10 9 8 6 5 5 4 5 7 8 10 10 11 11 13 12 14 16 19 23 27 31 34 34 36 39 41 43 43 45 45 46 45 45
19 18 15 14 13 12 9 8 7 7 5 1 2 4 6 6 9 12 15 16 16 18 18 19 20 21 23 26 31 35 39 40 41 42 44 45 47 47 46 46 47 50 48
9 9 10 10 10 11 11 11 10 8 7 6 7 9 11 12 16 19 20 21 24 25 26 25 25 27 30 33 35 38 40 43 46 48 49 49 50 51 50 54 53 53 53
10 11 12 11 9 9 10 9 9 9 10 10 10 10 11 12 17 21 24 27 31 34 34 34 33 34 37 38 38 39 42 45 48 52 54 56 56 56 55 56 57 55 54
10 12 14 16 19 22 23 22 19 18 17 13 13 14 16 20 24 28 34 38 42 45 43 39 36 38 38 39 41 43 43 45 51 56 57 58 60 59 58 54 55 56 56
23 24 24 24 26 27 28 28 29 31 28 28 27 24 26 28 31 33 37 42 43 41 44 43 41 41 47 49 47 48 50 51 55 56 58 59 60 60 59 56 52 54 55
32 32 34 35 34 33 33 33 33 31 29 29 32 33 32 34 36 41 45 52 47 42 43 43 46 47 49 52 51 54 56 57 57 57 58 57 55 57 56 53 50 53 54
32 32 33 32 33 34 35 35 35 34 34 34 32 34 35 40 45 47 50 51 48 46 46 48 51 53 54 55 56 58 60 61 59 59 56 55 53 54 54 52 52 51 54
32 31 30 30 30 30 31 31 33 35 38 40 40 41 43 46 48 50 51 47 48 50 51 52 53 55 57 59 61 62 63 61 59 58 56 54 52 52 52 51 49 51 50
32 28 27 27 26 26 26 27 28 30 33 35 37 40 46 48 47 45 42 43 46 48 50 52 53 53 55 56 57 57 57 54 49 49 48 47 47 47 45 46 47 47 49
33 28 27 27 28 28 29 28 29 30 31 32 34 37 39 41 41 42 43 43 43 45 47 48 47 48 48 49 49 49 47 45 43 44 44 43 43 43 44 45 46 49 50
24 22 21 21 22 22 22 23 23 24 25 26 26 27 29 31 34 36 37 38 39 40 42 44 43 40 41 42 43 44 43 41 41 41 42 42 43 44 46 48 48 48 48
19 19 19 19 19 18 18 18 18 19 20 22 23 25 26 28 30 32 33 34 33 35 36 37 38 38 37 35 37 39 42 42 42 41 43 44 44 43 44 45 44 43 44
19 19 18 18 17 18 18 19 19 20 21 21 22 23 25 26 27 28 29 30 31 31 31 33 34 34 35 35 35 34 36 38 39 39 39 40 40 40 41 41 41 41 41
16 16 16 16 17 17 17 17 17 18 18 18 18 19 20 22 23 24 24 24 25 26 26 27 28 29 29 29 30 29 28 27 27 27 30 33 34 35 37 39 39 41 41
Wind_Direction_850mb
124 121 125 122 139 189 219 219 216 207 234 210 240 222 202 176 190 195 200 208 217 211 197 199 186 204 224 222 229 236 232 229 231 234 240 247 246 256 268 277 286 291 299
103 108 106 106 104 108 120 125 120 135 142 156 171 176 160 155 176 192 206 208 188 163 150 172 187 191 204 211 223 232 230 226 223 233 224 224 242 258 274 286 297 303 303
95 95 100 102 104 102 98 106 101 93 102 107 101 98 98 108 99 88 105 141 155 147 139 138 196 204 191 189 214 218 207 193 177 201 205 213 239 275 291 302 303 305 305
94 88 85 84 86 95 103 101 109 113 119 128 138 135 122 136 144 189 216 222 190 150 166 167 155 146 168 165 159 154 139 132 141 133 146 227 294 306 305 305 305 305 303
104 102 92 88 91 96 98 101 102 106 105 109 108 109 120 138 157 170 187 180 174 177 157 148 145 158 151 136 133 135 126 123 103 83 7 331 320 313 310 310 309 308 308
93 93 93 94 95 98 98 93 87 82 85 96 112 111 114 126 133 145 146 142 139 140 151 158 158 149 151 153 150 137 106 51 7 354 334 321 317 316 317 314 312 313 316
88 88 90 90 89 86 89 94 99 101 102 103 104 107 116 116 112 119 123 132 142 148 149 146 137 147 135 122 119 103 51 346 334 335 335 332 329 322 318 314 312 313 311
84 85 87 86 86 84 87 92 94 98 100 99 100 103 106 114 116 121 126 135 139 141 145 141 143 136 114 114 85 23 346 342 332 335 335 328 325 319 319 316 314 311 311
88 89 87 85 84 88 93 95 97 97 101 104 109 114 121 126 128 133 136 139 146 151 153 153 156 175 197 321 336 341 341 337 330 328 328 328 324 321 320 317 314 313 312
82 80 83 89 89 89 87 89 93 95 97 104 109 120 129 143 145 149 153 165 168 177 179 186 204 242 311 327 334 332 325 324 326 327 327 325 322 319 318 316 313 310 312
75 77 79 82 84 84 85 86 87 92 95 99 105 116 135 154 154 170 191 200 211 221 241 254 266 296 305 313 316 316 319 319 320 320 319 319 319 317 315 313 310 307 306
70 67 69 70 74 75 76 82 87 90 90 86 106 150 172 180 213 235 244 251 259 269 273 276 286 290 299 304 305 309 313 313 315 316 317 319 318 318 319 315 309 305 303
51 49 47 49 51 51 42 44 47 41 37 14 272 276 284 297 291 284 282 283 283 282 282 285 291 296 299 301 304 306 309 311 314 317 319 320 319 318 318 313 310 305 305
46 34 20 15 23 26 20 18 12 353 328 316 307 298 302 304 299 297 297 294 288 286 289 291 290 292 294 295 296 299 303 309 313 315 317 316 316 317 317 313 313 309 307
308 298 293 287 294 303 307 307 296 296 303 308 312 313 307 306 305 305 303 296 293 291 290 288 289 292 293 293 297 299 302 307 311 312 313 315 316 314 314 312 312 309 308
323 316 308 304 298 292 286 281 275 275 274 280 278 281 297 305 300 296 295 295 294 290 284 283 283 283 289 292 293 295 297 305 306 309 312 312 311 311 310 309 307 307 307
302 300 299 298 295 294 295 294 288 289 288 284 289 285 295 295 293 298 305 302 298 289 288 293 291 284 287 290 295 298 303 304 306 309 308 308 307 306 306 306 306 304 304
296 292 290 291 292 292 291 291 291 287 279 278 279 275 278 285 294 295 301 301 297 291 290 289 290 290 291 295 298 300 302 305 307 306 304 304 303 302 301 303 304 304 304
303 294 291 291 290 289 290 291 290 290 287 280 272 270 282 291 290 293 294 292 293 292 291 292 295 297 298 299 300 300 300 301 302 301 302 302 301 299 303 305 305 304 304
320 311 301 294 290 287 285 286 287 288 289 291 291 287 283 285 286 289 294 298 300 300 298 296 294 295 296 297 298 299 301 303 306 305 306 305 303 304 304 302 302 302 301
317 313 308 305 298 291 287 286 288 290 291 293 293 291 289 290 293 296 296 294 293 293 293 295 297 299 301 302 303 303 305 308 307 304 302 301 300 300 300 300 301 300 300
312 316 317 316 312 306 302 300 298 297 295 293 292 293 295 297 300 303 305 305 305 304 303 302 302 302 301 301 301 302 302 303 301 299 301 301 300 301 300 298 298 299 300
310 315 321 323 321 318 317 315 312 310 308 308 308 305 304 302 300 300 300 301 302 303 305 306 308 309 307 307 306 306 306 305 303 303 301 300 301 302 301 301 303 304 304
336 333 335 333 331 329 326 323 320 317 316 314 313 313 312 312 312 312 312 313 313 313 312 311 311 312 312 310 308 308 308 309 310 309 306 305 305 303 303 304 306 306 307
336 341 344 345 344 342 341 339 336 334 331 331 330 329 328 328 327 326 324 323 323 323 322 322 321 321 321 321 320 318 316 314 315 313 311 311 310 310 310 309 309 308 308
4 1 359 358 357 355 354 351 349 346 344 341 340 341 341 342 341 341 340 340 339 337 336 335 334 334 335 335 337 339 341 341 339 337 334 331 329 329 327 326 324 321 319